M I D A S
Marine Information and Data Acquisition System
Tripno 490 of the Zeeleeuw from 2003-04-11 08:23:34 to 2003-04-11 16:45:56
Back to CruiseResearch ActivitiesStationsMapUnderway DataData graphs

EquipmentUnitsComments
TimeDGPSUTC
LatitudeDGPSDM.mWGS84
LongitudeDGPSDM.mWGS84
SpeedMeteo Stationm/sRelative wind speed
DirectionMeteo StationdegRelative wind direction
TemperatureMeteo Stationdeg CelciusAir temperature
PressureMeteo StationPaAtmospheric pressure
HumidityMeteo Station%Relative humidity
Missing or incorrect values are displayed as -999
Metereological data collected by the RV Zeeleeuw from 2003-04-11 08:23:34 to 2003-04-11 16:45:56
                                                                                    Next 1000 lines
Time Latitude Longitude Speed Direction Temperature Pressure Humidity
2003-04-11 08:23:40 51°38.92 3°18.86 3.9 343 4.2 100950 86
2003-04-11 08:23:46 51°38.93 3°18.89 3.7 335 4.2 100950 86
2003-04-11 08:23:50 51°38.94 3°18.91 3.3 336 4.2 100940 86
2003-04-11 08:23:56 51°38.96 3°18.94 3.5 334 4.2 100940 86
2003-04-11 08:24:00 51°38.97 3°18.96 3.4 338 4.2 100940 86
2003-04-11 08:24:06 51°38.99 3°18.99 4.3 345 4.2 100940 86
2003-04-11 08:24:10 51°39 3°19.01 3.8 340 4.2 100940 85
2003-04-11 08:24:16 51°39.01 3°19.04 3.4 334 4.2 100940 85
2003-04-11 08:24:20 51°39.02 3°19.06 3.6 338 4.2 100940 86
2003-04-11 08:24:26 51°39.04 3°19.09 3.9 342 4.2 100940 86
2003-04-11 08:24:30 51°39.05 3°19.11 3.9 336 4.3 100940 86
2003-04-11 08:24:36 51°39.07 3°19.14 3.2 347 4.3 100940 86
2003-04-11 08:24:40 51°39.08 3°19.16 3.9 342 4.2 100950 86
2003-04-11 08:24:46 51°39.1 3°19.19 3.6 353 4.2 100950 86
2003-04-11 08:24:50 51°39.1 3°19.21 3.3 339 4.2 100950 86
2003-04-11 08:24:56 51°39.12 3°19.24 3.4 355 4.2 100950 86
2003-04-11 08:25:00 51°39.13 3°19.26 3.2 340 4.3 100950 86
2003-04-11 08:25:06 51°39.15 3°19.29 3.9 351 4.3 100950 86
2003-04-11 08:25:10 51°39.16 3°19.32 4 344 4.3 100940 86
2003-04-11 08:25:16 51°39.17 3°19.35 3.4 346 4.3 100940 86
2003-04-11 08:25:20 51°39.18 3°19.37 3.6 341 4.2 100950 86
2003-04-11 08:25:26 51°39.2 3°19.4 3.8 344 4.2 100950 86
2003-04-11 08:25:30 51°39.21 3°19.42 3.9 331 4.3 100960 86
2003-04-11 08:25:36 51°39.22 3°19.45 3.8 342 4.3 100960 86
2003-04-11 08:25:40 51°39.23 3°19.47 4 325 4.2 100940 86
2003-04-11 08:25:46 51°39.25 3°19.5 3.6 342 4.2 100940 86
2003-04-11 08:25:50 51°39.26 3°19.53 3.6 325 4.3 100950 86
2003-04-11 08:25:56 51°39.27 3°19.56 3.9 342 4.3 100950 86
2003-04-11 08:26:00 51°39.28 3°19.58 3.7 329 4.3 100950 86
2003-04-11 08:26:06 51°39.3 3°19.61 3.8 336 4.3 100950 86
2003-04-11 08:26:10 51°39.31 3°19.63 4 335 4.3 100950 86
2003-04-11 08:26:16 51°39.32 3°19.66 3.2 329 4.3 100950 86
2003-04-11 08:26:20 51°39.33 3°19.68 3.5 343 4.3 100950 86
2003-04-11 08:26:26 51°39.35 3°19.71 3.6 336 4.3 100950 86
2003-04-11 08:26:30 51°39.36 3°19.73 3.7 341 4.3 100960 86
2003-04-11 08:26:36 51°39.37 3°19.76 4 341 4.3 100960 86
2003-04-11 08:26:40 51°39.38 3°19.78 4.4 341 4.3 100950 86
2003-04-11 08:26:46 51°39.4 3°19.81 3.8 336 4.3 100950 86
2003-04-11 08:26:50 51°39.41 3°19.83 3.7 336 4.3 100960 86
2003-04-11 08:26:56 51°39.43 3°19.86 4.3 327 4.3 100960 86
2003-04-11 08:27:00 51°39.44 3°19.88 3.4 334 4.3 100960 86
2003-04-11 08:27:06 51°39.45 3°19.92 3.4 333 4.3 100960 86
2003-04-11 08:27:10 51°39.46 3°19.94 3.8 338 4.4 100950 86
2003-04-11 08:27:16 51°39.48 3°19.97 3.4 338 4.4 100950 86
2003-04-11 08:27:20 51°39.49 3°19.99 4.1 335 4.4 100950 86
2003-04-11 08:27:26 51°39.5 3°20.02 4.1 325 4.4 100950 86
2003-04-11 08:27:30 51°39.51 3°20.04 3.9 335 4.3 100950 86
2003-04-11 08:27:36 51°39.53 3°20.07 3.7 331 4.3 100950 86
2003-04-11 08:27:40 51°39.54 3°20.09 3.7 345 4.4 100940 86
2003-04-11 08:27:46 51°39.55 3°20.12 4.3 336 4.4 100940 86
2003-04-11 08:27:50 51°39.56 3°20.14 4.2 336 4.4 100950 86
2003-04-11 08:27:56 51°39.58 3°20.17 3.9 337 4.4 100950 86
2003-04-11 08:28:00 51°39.59 3°20.19 4 331 4.4 100950 86
2003-04-11 08:28:06 51°39.61 3°20.23 4 333 4.4 100950 86
2003-04-11 08:28:10 51°39.62 3°20.25 3.7 324 4.4 100940 86
2003-04-11 08:28:16 51°39.63 3°20.28 3.8 328 4.4 100940 86
2003-04-11 08:28:20 51°39.64 3°20.3 3.9 331 4.4 100940 86
2003-04-11 08:28:26 51°39.66 3°20.33 3.5 332 4.4 100940 86
2003-04-11 08:28:30 51°39.67 3°20.35 3.4 331 4.4 100950 86
2003-04-11 08:28:36 51°39.68 3°20.38 4.4 333 4.4 100950 86
2003-04-11 08:28:40 51°39.69 3°20.4 3.6 332 4.4 100950 86
2003-04-11 08:28:46 51°39.71 3°20.43 3.7 335 4.4 100950 86
2003-04-11 08:28:50 51°39.72 3°20.45 3.7 332 4.4 100950 86
2003-04-11 08:28:56 51°39.74 3°20.48 4.5 334 4.4 100950 86
2003-04-11 08:29:00 51°39.75 3°20.5 4.7 339 4.4 100950 86
2003-04-11 08:29:06 51°39.76 3°20.53 5.1 340 4.4 100950 86
2003-04-11 08:29:10 51°39.77 3°20.56 5.4 340 4.4 100950 86
2003-04-11 08:29:16 51°39.79 3°20.59 4.7 343 4.4 100950 86
2003-04-11 08:29:20 51°39.8 3°20.61 4.8 339 4.4 100950 86
2003-04-11 08:29:26 51°39.81 3°20.64 4.6 338 4.4 100950 86
2003-04-11 08:29:30 51°39.82 3°20.66 4.7 333 4.4 100950 86
2003-04-11 08:29:36 51°39.84 3°20.69 4.5 337 4.4 100950 86
2003-04-11 08:29:40 51°39.85 3°20.71 5 340 4.4 100950 86
2003-04-11 08:29:46 51°39.87 3°20.74 5 340 4.4 100950 86
2003-04-11 08:29:50 51°39.88 3°20.76 5 338 4.4 100950 86
2003-04-11 08:29:56 51°39.89 3°20.79 4.8 342 4.4 100950 86
2003-04-11 08:30:00 51°39.9 3°20.81 4.1 339 4.4 100950 86
2003-04-11 08:30:06 51°39.92 3°20.84 4.4 336 4.4 100950 86
2003-04-11 08:30:10 51°39.93 3°20.86 4.2 347 4.4 100940 86
2003-04-11 08:30:16 51°39.94 3°20.89 4.9 343 4.4 100940 86
2003-04-11 08:30:20 51°39.95 3°20.91 5 341 4.5 100940 86
2003-04-11 08:30:26 51°39.97 3°20.94 5.2 343 4.5 100940 86
2003-04-11 08:30:30 51°39.98 3°20.96 5.9 349 4.5 100960 86
2003-04-11 08:30:36 51°40 3°20.99 4.6 343 4.5 100960 86
2003-04-11 08:30:40 51°40.01 3°21.01 4.7 346 4.5 100950 86
2003-04-11 08:30:46 51°40.02 3°21.05 4.4 339 4.5 100950 86
2003-04-11 08:30:50 51°40.03 3°21.07 4.5 346 4.5 100950 86
2003-04-11 08:30:56 51°40.05 3°21.1 4.8 350 4.5 100950 86
2003-04-11 08:31:00 51°40.06 3°21.12 4.8 344 4.5 100940 86
2003-04-11 08:31:06 51°40.07 3°21.15 4.7 347 4.5 100940 86
2003-04-11 08:31:10 51°40.08 3°21.17 5.6 349 4.5 100950 86
2003-04-11 08:31:16 51°40.1 3°21.2 5.3 348 4.5 100950 86
2003-04-11 08:31:20 51°40.11 3°21.22 5.7 345 4.5 100950 86
2003-04-11 08:31:26 51°40.13 3°21.25 5.5 346 4.5 100950 86
2003-04-11 08:31:30 51°40.14 3°21.27 5 341 4.5 100950 86
2003-04-11 08:31:36 51°40.15 3°21.3 4.8 345 4.5 100950 86
2003-04-11 08:31:40 51°40.16 3°21.32 4.7 335 4.6 100950 86
2003-04-11 08:31:46 51°40.18 3°21.35 5.9 349 4.6 100950 86
2003-04-11 08:31:50 51°40.19 3°21.37 5.7 346 4.6 100950 86
2003-04-11 08:31:56 51°40.2 3°21.4 6 350 4.6 100950 86
2003-04-11 08:32:00 51°40.21 3°21.42 5.5 350 4.6 100950 86
2003-04-11 08:32:06 51°40.23 3°21.45 5.1 353 4.6 100950 86
2003-04-11 08:32:10 51°40.24 3°21.47 5.2 353 4.6 100960 86
2003-04-11 08:32:16 51°40.25 3°21.5 5.3 344 4.6 100960 86
2003-04-11 08:32:20 51°40.27 3°21.52 5.6 348 4.6 100950 86
2003-04-11 08:32:26 51°40.28 3°21.55 4.9 348 4.6 100950 86
2003-04-11 08:32:30 51°40.29 3°21.57 5.1 349 4.6 100950 86
2003-04-11 08:32:36 51°40.31 3°21.6 4.8 352 4.6 100950 86
2003-04-11 08:32:40 51°40.32 3°21.62 5 346 4.6 100940 86
2003-04-11 08:32:46 51°40.33 3°21.66 4.9 348 4.6 100940 86
2003-04-11 08:32:50 51°40.34 3°21.68 4.7 346 4.6 100950 86
2003-04-11 08:32:56 51°40.36 3°21.71 5.3 345 4.6 100950 86
2003-04-11 08:33:00 51°40.37 3°21.73 5.2 340 4.6 100950 86
2003-04-11 08:33:06 51°40.38 3°21.76 5.9 345 4.6 100950 86
2003-04-11 08:33:10 51°40.39 3°21.78 5.2 350 4.6 100950 86
2003-04-11 08:33:16 51°40.41 3°21.81 4.9 349 4.6 100950 86
2003-04-11 08:33:20 51°40.42 3°21.83 4.6 340 4.6 100950 86
2003-04-11 08:33:26 51°40.43 3°21.86 4.8 344 4.6 100950 86
2003-04-11 08:33:30 51°40.44 3°21.88 4.8 340 4.6 100950 86
2003-04-11 08:33:36 51°40.46 3°21.91 5.2 347 4.6 100950 86
2003-04-11 08:33:40 51°40.47 3°21.93 4.9 340 4.6 100950 86
2003-04-11 08:33:46 51°40.49 3°21.96 4.7 346 4.6 100950 86
2003-04-11 08:33:50 51°40.5 3°21.98 5.2 353 4.6 100950 85
2003-04-11 08:33:56 51°40.51 3°22.01 4.8 353 4.6 100950 85
2003-04-11 08:34:00 51°40.52 3°22.03 4.9 1 4.6 100950 86
2003-04-11 08:34:06 51°40.54 3°22.06 4.6 4 4.6 100950 86
2003-04-11 08:34:10 51°40.55 3°22.08 5 359 4.7 100950 86
2003-04-11 08:34:16 51°40.56 3°22.12 5.6 356 4.7 100950 86
2003-04-11 08:34:20 51°40.57 3°22.14 5.5 348 4.7 100950 86
2003-04-11 08:34:26 51°40.59 3°22.17 4.7 349 4.7 100950 86
2003-04-11 08:34:30 51°40.6 3°22.19 5.6 344 4.7 100940 86
2003-04-11 08:34:36 51°40.61 3°22.22 5.8 350 4.7 100940 86
2003-04-11 08:34:40 51°40.62 3°22.24 5.2 346 4.7 100950 86
2003-04-11 08:34:46 51°40.64 3°22.27 5.4 344 4.7 100950 86
2003-04-11 08:34:50 51°40.65 3°22.29 5.1 347 4.7 100940 86
2003-04-11 08:34:56 51°40.67 3°22.32 5.4 343 4.7 100940 86
2003-04-11 08:35:00 51°40.68 3°22.34 5.5 345 4.7 100950 86
2003-04-11 08:35:06 51°40.69 3°22.37 5.4 345 4.7 100950 86
2003-04-11 08:35:10 51°40.7 3°22.39 5.3 347 4.7 100950 86
2003-04-11 08:35:16 51°40.72 3°22.42 5.6 346 4.7 100950 86
2003-04-11 08:35:20 51°40.73 3°22.44 5 346 4.7 100960 85
2003-04-11 08:35:26 51°40.74 3°22.47 5.4 346 4.7 100960 85
2003-04-11 08:35:30 51°40.75 3°22.49 5.1 346 4.7 100950 85
2003-04-11 08:35:36 51°40.77 3°22.53 6.2 341 4.7 100950 85
2003-04-11 08:35:40 51°40.78 3°22.55 5.6 352 4.7 100950 85
2003-04-11 08:35:46 51°40.79 3°22.58 5.5 343 4.7 100950 85
2003-04-11 08:35:50 51°40.8 3°22.6 5.3 355 4.7 100960 85
2003-04-11 08:35:56 51°40.82 3°22.63 5.3 352 4.7 100960 85
2003-04-11 08:36:00 51°40.83 3°22.65 4.9 356 4.7 100950 85
2003-04-11 08:36:06 51°40.84 3°22.68 5.4 351 4.7 100950 85
2003-04-11 08:36:10 51°40.86 3°22.7 5.2 354 4.7 100950 85
2003-04-11 08:36:16 51°40.87 3°22.73 4.8 351 4.7 100950 85
2003-04-11 08:36:20 51°40.88 3°22.75 5 353 4.7 100950 85
2003-04-11 08:36:26 51°40.9 3°22.78 5.5 350 4.7 100950 85
2003-04-11 08:36:30 51°40.91 3°22.8 5.7 358 4.7 100960 85
2003-04-11 08:36:36 51°40.92 3°22.83 6.3 357 4.7 100960 85
2003-04-11 08:36:40 51°40.93 3°22.86 6.9 353 4.7 100950 85
2003-04-11 08:36:46 51°40.95 3°22.89 5.9 353 4.7 100950 85
2003-04-11 08:36:50 51°40.96 3°22.91 6.1 347 4.7 100950 85
2003-04-11 08:36:56 51°40.97 3°22.94 5.8 351 4.7 100950 85
2003-04-11 08:37:00 51°40.98 3°22.96 5.4 343 4.7 100950 85
2003-04-11 08:37:06 51°41 3°22.99 5.8 349 4.7 100950 85
2003-04-11 08:37:10 51°41.01 3°23.01 5.8 345 4.7 100940 85
2003-04-11 08:37:16 51°41.03 3°23.04 6.1 350 4.7 100940 85
2003-04-11 08:37:20 51°41.04 3°23.06 5.4 348 4.7 100950 85
2003-04-11 08:37:26 51°41.05 3°23.09 6.1 350 4.7 100950 85
2003-04-11 08:37:30 51°41.06 3°23.11 6.3 349 4.7 100960 85
2003-04-11 08:37:36 51°41.08 3°23.14 5.3 347 4.7 100960 85
2003-04-11 08:37:40 51°41.09 3°23.17 5.5 346 4.7 100960 85
2003-04-11 08:37:46 51°41.1 3°23.2 6 349 4.7 100960 85
2003-04-11 08:37:50 51°41.11 3°23.22 5.7 352 4.7 100960 85
2003-04-11 08:37:56 51°41.13 3°23.25 5.1 355 4.7 100960 85
2003-04-11 08:38:00 51°41.14 3°23.27 5.4 346 4.7 100950 85
2003-04-11 08:38:06 51°41.15 3°23.3 6 350 4.7 100950 85
2003-04-11 08:38:10 51°41.16 3°23.32 5.5 342 4.7 100950 85
2003-04-11 08:38:16 51°41.18 3°23.35 5.7 347 4.7 100950 85
2003-04-11 08:38:20 51°41.19 3°23.37 5.4 344 4.7 100950 85
2003-04-11 08:38:26 51°41.21 3°23.4 5.5 348 4.7 100950 85
2003-04-11 08:38:30 51°41.22 3°23.42 5.2 347 4.7 100960 85
2003-04-11 08:38:36 51°41.23 3°23.45 5.5 352 4.7 100960 85
2003-04-11 08:38:40 51°41.24 3°23.47 5.5 346 4.7 100960 85
2003-04-11 08:38:46 51°41.26 3°23.5 5.3 351 4.7 100960 85
2003-04-11 08:38:50 51°41.27 3°23.53 5.5 348 4.7 100950 85
2003-04-11 08:38:56 51°41.28 3°23.56 5.9 358 4.7 100950 85
2003-04-11 08:39:00 51°41.29 3°23.58 5.9 355 4.7 100950 85
2003-04-11 08:39:06 51°41.31 3°23.61 5.7 352 4.7 100950 85
2003-04-11 08:39:10 51°41.32 3°23.63 6.2 356 4.7 100950 85
2003-04-11 08:39:16 51°41.34 3°23.66 5.2 345 4.7 100950 85
2003-04-11 08:39:20 51°41.35 3°23.68 5.6 354 4.7 100950 85
2003-04-11 08:39:26 51°41.36 3°23.71 5.5 348 4.7 100950 85
2003-04-11 08:39:30 51°41.37 3°23.73 5.4 353 4.7 100950 85
2003-04-11 08:39:36 51°41.39 3°23.76 5.8 344 4.7 100950 85
2003-04-11 08:39:40 51°41.4 3°23.78 6.2 348 4.7 100950 85
2003-04-11 08:39:46 51°41.42 3°23.81 5.8 346 4.7 100950 85
2003-04-11 08:39:50 51°41.43 3°23.83 5.8 348 4.7 100960 85
2003-04-11 08:39:56 51°41.44 3°23.86 5.7 348 4.7 100960 85
2003-04-11 08:40:00 51°41.45 3°23.88 5.7 347 4.7 100960 85
2003-04-11 08:40:06 51°41.47 3°23.91 5.7 345 4.7 100960 85
2003-04-11 08:40:10 51°41.48 3°23.93 5.6 338 4.7 100950 85
2003-04-11 08:40:16 51°41.5 3°23.96 5.7 346 4.7 100950 85
2003-04-11 08:40:20 51°41.51 3°23.98 5.9 342 4.7 100960 85
2003-04-11 08:40:26 51°41.52 3°24.01 5.4 350 4.7 100960 85
2003-04-11 08:40:30 51°41.53 3°24.03 6 346 4.6 100960 85
2003-04-11 08:40:36 51°41.55 3°24.06 5.6 350 4.6 100960 85
2003-04-11 08:40:40 51°41.56 3°24.08 5.5 349 4.7 100960 85
2003-04-11 08:40:46 51°41.58 3°24.11 6 349 4.7 100960 85
2003-04-11 08:40:50 51°41.59 3°24.13 6 353 4.7 100950 85
2003-04-11 08:40:56 51°41.6 3°24.16 6.2 345 4.7 100950 85
2003-04-11 08:41:00 51°41.61 3°24.18 5.3 355 4.7 100960 85
2003-04-11 08:41:06 51°41.63 3°24.21 5 343 4.7 100960 85
2003-04-11 08:41:10 51°41.64 3°24.23 5.2 356 4.7 100960 85
2003-04-11 08:41:16 51°41.66 3°24.26 5.2 345 4.7 100960 85
2003-04-11 08:41:20 51°41.67 3°24.28 6 349 4.6 100960 85
2003-04-11 08:41:26 51°41.68 3°24.32 5.5 350 4.6 100960 85
2003-04-11 08:41:30 51°41.69 3°24.34 5.3 347 4.6 100960 85
2003-04-11 08:41:36 51°41.71 3°24.37 5.4 349 4.6 100960 85
2003-04-11 08:41:40 51°41.72 3°24.39 5.1 343 4.6 100960 85
2003-04-11 08:41:46 51°41.74 3°24.42 5.6 350 4.6 100960 85
2003-04-11 08:41:50 51°41.75 3°24.44 5.7 349 4.7 100950 85
2003-04-11 08:41:56 51°41.76 3°24.47 5.8 351 4.7 100950 85
2003-04-11 08:42:00 51°41.77 3°24.49 5.9 347 4.6 100960 85
2003-04-11 08:42:06 51°41.79 3°24.52 5.9 350 4.6 100960 85
2003-04-11 08:42:10 51°41.8 3°24.54 6.9 352 4.6 100950 84
2003-04-11 08:42:16 51°41.82 3°24.57 5.5 351 4.6 100950 84
2003-04-11 08:42:20 51°41.83 3°24.59 6.1 347 4.6 100960 84
2003-04-11 08:42:26 51°41.84 3°24.62 6 348 4.6 100960 84
2003-04-11 08:42:30 51°41.85 3°24.64 5.5 351 4.6 100960 84
2003-04-11 08:42:36 51°41.87 3°24.67 5.9 344 4.6 100960 84
2003-04-11 08:42:40 51°41.88 3°24.69 5.8 350 4.6 100960 84
2003-04-11 08:42:46 51°41.89 3°24.72 5.7 344 4.6 100960 84
2003-04-11 08:42:50 51°41.91 3°24.74 5.8 346 4.6 100960 84
2003-04-11 08:42:56 51°41.92 3°24.77 5.9 348 4.6 100960 84
2003-04-11 08:43:00 51°41.93 3°24.79 5.8 347 4.6 100960 84
2003-04-11 08:43:06 51°41.95 3°24.82 5.9 347 4.6 100960 84
2003-04-11 08:43:10 51°41.96 3°24.84 5.5 350 4.6 100960 84
2003-04-11 08:43:16 51°41.97 3°24.87 5.7 343 4.6 100960 84
2003-04-11 08:43:20 51°41.98 3°24.89 5.3 350 4.6 100960 84
2003-04-11 08:43:26 51°42 3°24.92 5.7 350 4.6 100960 84
2003-04-11 08:43:30 51°42.01 3°24.94 5.6 344 4.6 100960 84
2003-04-11 08:43:36 51°42.03 3°24.97 6.1 352 4.6 100960 84
2003-04-11 08:43:40 51°42.04 3°24.99 6.2 345 4.6 100960 84
2003-04-11 08:43:46 51°42.05 3°25.03 5.8 347 4.6 100960 84
2003-04-11 08:43:50 51°42.06 3°25.05 6.2 351 4.6 100960 84
2003-04-11 08:43:56 51°42.08 3°25.08 5.1 348 4.6 100960 84
2003-04-11 08:44:00 51°42.09 3°25.1 5.1 351 4.6 100960 84
2003-04-11 08:44:06 51°42.11 3°25.13 5.3 349 4.6 100960 84
2003-04-11 08:44:10 51°42.12 3°25.15 5.4 350 4.6 100960 84
2003-04-11 08:44:16 51°42.13 3°25.18 6 344 4.6 100960 84
2003-04-11 08:44:20 51°42.14 3°25.2 5.8 348 4.6 100950 84
2003-04-11 08:44:26 51°42.16 3°25.23 5.7 347 4.6 100950 84
2003-04-11 08:44:30 51°42.17 3°25.25 5.7 346 4.6 100950 83
2003-04-11 08:44:36 51°42.19 3°25.28 5.2 351 4.6 100950 83
2003-04-11 08:44:40 51°42.2 3°25.3 5.2 345 4.6 100960 83
2003-04-11 08:44:46 51°42.21 3°25.33 6.1 349 4.6 100960 83
2003-04-11 08:44:50 51°42.22 3°25.35 6.2 346 4.6 100960 83
2003-04-11 08:44:56 51°42.24 3°25.38 6.1 346 4.6 100960 83
2003-04-11 08:45:00 51°42.25 3°25.4 5.9 349 4.6 100960 83
2003-04-11 08:45:06 51°42.27 3°25.43 5.6 341 4.6 100960 83
2003-04-11 08:45:10 51°42.28 3°25.45 5.4 349 4.6 100960 83
2003-04-11 08:45:16 51°42.29 3°25.48 5.7 343 4.6 100960 83
2003-04-11 08:45:20 51°42.3 3°25.5 5.4 338 4.6 100960 83
2003-04-11 08:45:26 51°42.32 3°25.53 6 344 4.6 100960 83
2003-04-11 08:45:30 51°42.33 3°25.55 5.3 340 4.7 100960 83
2003-04-11 08:45:36 51°42.35 3°25.58 5.7 344 4.7 100960 83
2003-04-11 08:45:40 51°42.36 3°25.61 5.7 342 4.7 100960 83
2003-04-11 08:45:46 51°42.37 3°25.64 5.4 345 4.7 100960 83
2003-04-11 08:45:50 51°42.38 3°25.66 5.8 344 4.7 100970 83
2003-04-11 08:45:56 51°42.4 3°25.69 5.6 350 4.7 100970 83
2003-04-11 08:46:00 51°42.41 3°25.71 5.9 349 4.6 100960 83
2003-04-11 08:46:06 51°42.43 3°25.74 5.2 343 4.6 100960 83
2003-04-11 08:46:10 51°42.44 3°25.76 5.2 352 4.7 100960 83
2003-04-11 08:46:16 51°42.45 3°25.79 5 346 4.7 100960 83
2003-04-11 08:46:20 51°42.46 3°25.81 5.2 341 4.7 100960 83
2003-04-11 08:46:26 51°42.48 3°25.84 5.8 348 4.7 100960 83
2003-04-11 08:46:30 51°42.49 3°25.86 6.3 350 4.7 100960 83
2003-04-11 08:46:36 51°42.51 3°25.89 4.9 350 4.7 100960 83
2003-04-11 08:46:40 51°42.52 3°25.91 5.1 342 4.7 100960 83
2003-04-11 08:46:46 51°42.53 3°25.94 5 346 4.7 100960 83
2003-04-11 08:46:50 51°42.54 3°25.96 5.4 340 4.7 100970 83
2003-04-11 08:46:56 51°42.56 3°25.99 5 342 4.7 100970 83
2003-04-11 08:47:00 51°42.57 3°26.01 5.9 349 4.7 100950 83
2003-04-11 08:47:06 51°42.59 3°26.04 5.2 343 4.7 100950 83
2003-04-11 08:47:10 51°42.6 3°26.06 5.7 345 4.7 100960 83
2003-04-11 08:47:16 51°42.61 3°26.09 5.4 346 4.7 100960 83
2003-04-11 08:47:20 51°42.62 3°26.12 5.8 345 4.7 100960 83
2003-04-11 08:47:26 51°42.64 3°26.15 5 345 4.7 100960 83
2003-04-11 08:47:30 51°42.65 3°26.17 5.6 345 4.7 100950 83
2003-04-11 08:47:36 51°42.66 3°26.2 5.2 346 4.7 100950 83
2003-04-11 08:47:40 51°42.68 3°26.22 5.4 349 4.7 100960 83
2003-04-11 08:47:46 51°42.69 3°26.25 5 338 4.7 100960 83
2003-04-11 08:47:50 51°42.7 3°26.27 5.1 344 4.7 100960 83
2003-04-11 08:47:56 51°42.72 3°26.3 5.2 340 4.7 100960 83
2003-04-11 08:48:00 51°42.73 3°26.32 4.8 352 4.7 100950 83
2003-04-11 08:48:06 51°42.74 3°26.35 5.1 345 4.7 100950 83
2003-04-11 08:48:10 51°42.75 3°26.37 5.4 346 4.7 100960 83
2003-04-11 08:48:16 51°42.77 3°26.4 5 347 4.7 100960 83
2003-04-11 08:48:20 51°42.78 3°26.42 5.4 344 4.7 100960 83
2003-04-11 08:48:26 51°42.8 3°26.45 5.6 349 4.7 100960 83
2003-04-11 08:48:30 51°42.81 3°26.47 5.4 339 4.7 100960 83
2003-04-11 08:48:36 51°42.82 3°26.5 5.8 342 4.7 100960 83
2003-04-11 08:48:40 51°42.83 3°26.52 5.4 346 4.7 100960 83
2003-04-11 08:48:46 51°42.85 3°26.55 5.7 343 4.7 100960 83
2003-04-11 08:48:50 51°42.86 3°26.57 6.2 348 4.7 100960 83
2003-04-11 08:48:56 51°42.88 3°26.61 5.7 345 4.7 100960 83
2003-04-11 08:49:00 51°42.89 3°26.63 5.5 347 4.7 100960 83
2003-04-11 08:49:06 51°42.9 3°26.66 5.8 349 4.7 100960 83
2003-04-11 08:49:10 51°42.91 3°26.68 6 350 4.7 100950 83
2003-04-11 08:49:16 51°42.93 3°26.71 6 346 4.7 100950 83
2003-04-11 08:49:20 51°42.94 3°26.73 5.4 347 4.8 100950 83
2003-04-11 08:49:26 51°42.95 3°26.76 5 347 4.8 100950 83
2003-04-11 08:49:30 51°42.97 3°26.78 5.5 351 4.8 100960 83
2003-04-11 08:49:36 51°42.98 3°26.81 5.5 353 4.8 100960 83
2003-04-11 08:49:40 51°42.99 3°26.83 5.7 353 4.8 100960 83
2003-04-11 08:49:46 51°43.01 3°26.86 5.2 345 4.8 100960 83
2003-04-11 08:49:50 51°43.02 3°26.88 5.2 355 4.8 100950 82
2003-04-11 08:49:56 51°43.03 3°26.91 5.4 341 4.8 100950 82
2003-04-11 08:50:00 51°43.04 3°26.93 4.9 356 4.8 100960 82
2003-04-11 08:50:06 51°43.06 3°26.97 6.3 350 4.8 100960 82
2003-04-11 08:50:10 51°43.07 3°26.99 6.4 353 4.8 100960 82
2003-04-11 08:50:16 51°43.09 3°27.02 5.6 352 4.8 100960 82
2003-04-11 08:50:20 51°43.1 3°27.04 6 351 4.8 100960 82
2003-04-11 08:50:26 51°43.11 3°27.07 6.3 353 4.8 100960 82
2003-04-11 08:50:30 51°43.12 3°27.09 5.8 347 4.8 100960 82
2003-04-11 08:50:36 51°43.14 3°27.12 6.2 346 4.8 100960 82
2003-04-11 08:50:40 51°43.15 3°27.14 6 353 4.8 100960 82
2003-04-11 08:50:46 51°43.17 3°27.17 5.3 345 4.8 100960 82
2003-04-11 08:50:50 51°43.18 3°27.19 5.2 350 4.8 100950 82
2003-04-11 08:50:56 51°43.19 3°27.22 5.5 339 4.8 100950 82
2003-04-11 08:51:00 51°43.2 3°27.24 5.2 348 4.8 100960 82
2003-04-11 08:51:06 51°43.22 3°27.27 6.2 348 4.8 100960 82
2003-04-11 08:51:10 51°43.23 3°27.29 5.9 352 4.8 100960 82
2003-04-11 08:51:16 51°43.25 3°27.32 5.6 347 4.8 100960 82
2003-04-11 08:51:20 51°43.26 3°27.34 6.1 352 4.8 100960 82
2003-04-11 08:51:26 51°43.27 3°27.38 5.7 349 4.8 100960 82
2003-04-11 08:51:30 51°43.28 3°27.4 6.1 351 4.8 100970 82
2003-04-11 08:51:36 51°43.3 3°27.43 5.4 344 4.8 100970 82
2003-04-11 08:51:40 51°43.31 3°27.45 5.5 354 4.8 100960 82
2003-04-11 08:51:46 51°43.32 3°27.48 5.1 346 4.8 100960 82
2003-04-11 08:51:50 51°43.34 3°27.5 5.7 352 4.9 100960 82
2003-04-11 08:51:56 51°43.35 3°27.53 5.9 349 4.9 100960 82
2003-04-11 08:52:00 51°43.36 3°27.55 5.8 345 4.9 100960 82
2003-04-11 08:52:06 51°43.38 3°27.58 5.9 343 4.9 100960 82
2003-04-11 08:52:10 51°43.38 3°27.61 6.2 345 4.9 100960 82
2003-04-11 08:52:16 51°43.4 3°27.64 5.4 345 4.9 100960 82
2003-04-11 08:52:20 51°43.41 3°27.66 5.8 346 4.9 100960 81
2003-04-11 08:52:26 51°43.42 3°27.69 5.4 344 4.9 100960 81
2003-04-11 08:52:30 51°43.43 3°27.72 5.7 345 4.9 100960 81
2003-04-11 08:52:36 51°43.44 3°27.75 6 344 4.9 100960 81
2003-04-11 08:52:40 51°43.45 3°27.77 5.2 343 4.9 100960 81
2003-04-11 08:52:46 51°43.47 3°27.8 5.3 350 4.9 100960 81
2003-04-11 08:52:50 51°43.48 3°27.83 5.1 342 4.9 100960 81
2003-04-11 08:52:56 51°43.49 3°27.86 4.9 344 4.9 100960 81
2003-04-11 08:53:00 51°43.5 3°27.88 5.3 340 4.9 100970 81
2003-04-11 08:53:06 51°43.51 3°27.91 5.1 345 4.9 100970 81
2003-04-11 08:53:10 51°43.52 3°27.94 4.9 339 4.9 100960 81
2003-04-11 08:53:16 51°43.54 3°27.97 5.5 346 4.9 100960 81
2003-04-11 08:53:20 51°43.55 3°27.99 5.4 342 4.9 100960 81
2003-04-11 08:53:26 51°43.56 3°28.03 6.2 345 4.9 100960 81
2003-04-11 08:53:30 51°43.57 3°28.05 5.4 348 4.9 100960 81
2003-04-11 08:53:36 51°43.58 3°28.08 5.8 348 4.9 100960 81
2003-04-11 08:53:40 51°43.59 3°28.1 5.5 344 4.9 100960 81
2003-04-11 08:53:46 51°43.6 3°28.14 5.1 346 4.9 100960 81
2003-04-11 08:53:50 51°43.61 3°28.16 4.9 349 5 100960 81
2003-04-11 08:53:56 51°43.63 3°28.19 5.7 347 5 100960 81
2003-04-11 08:54:00 51°43.64 3°28.21 5.5 339 4.9 100970 81
2003-04-11 08:54:06 51°43.65 3°28.25 5.5 349 4.9 100970 81
2003-04-11 08:54:10 51°43.66 3°28.27 5.8 345 4.9 100960 81
2003-04-11 08:54:16 51°43.67 3°28.3 5.4 354 4.9 100960 81
2003-04-11 08:54:20 51°43.68 3°28.32 5.5 343 5 100960 81
2003-04-11 08:54:26 51°43.69 3°28.36 5.8 352 5 100960 81
2003-04-11 08:54:30 51°43.7 3°28.38 5.4 350 5 100970 81
2003-04-11 08:54:36 51°43.72 3°28.41 5.4 350 5 100970 81
2003-04-11 08:54:40 51°43.73 3°28.43 5.2 346 5 100960 81
2003-04-11 08:54:46 51°43.74 3°28.47 5.2 352 5 100960 81
2003-04-11 08:54:50 51°43.75 3°28.49 5 350 5 100960 81
2003-04-11 08:54:56 51°43.76 3°28.52 5.3 347 5 100960 81
2003-04-11 08:55:00 51°43.77 3°28.54 5 346 5 100960 81
2003-04-11 08:55:06 51°43.79 3°28.58 5.3 346 5 100960 81
2003-04-11 08:55:10 51°43.79 3°28.6 5.2 349 5 100970 81
2003-04-11 08:55:16 51°43.81 3°28.63 4.9 346 5 100970 81
2003-04-11 08:55:20 51°43.82 3°28.65 5 351 5 100960 81
2003-04-11 08:55:26 51°43.83 3°28.69 5.2 352 5 100960 81
2003-04-11 08:55:30 51°43.84 3°28.71 5.2 345 5 100970 81
2003-04-11 08:55:36 51°43.85 3°28.74 6.1 352 5 100970 81
2003-04-11 08:55:40 51°43.86 3°28.76 5.4 359 5 100970 81
2003-04-11 08:55:46 51°43.88 3°28.8 5.7 352 5 100970 81
2003-04-11 08:55:50 51°43.89 3°28.82 5.6 357 5 100960 81
2003-04-11 08:55:56 51°43.9 3°28.85 5.3 343 5 100960 81
2003-04-11 08:56:00 51°43.91 3°28.87 5.3 1 5 100970 81
2003-04-11 08:56:06 51°43.92 3°28.91 6 348 5 100970 81
2003-04-11 08:56:10 51°43.93 3°28.93 6.2 5 5 100960 81
2003-04-11 08:56:16 51°43.94 3°28.96 5.5 345 5 100960 81
2003-04-11 08:56:20 51°43.95 3°28.99 5.2 349 5 100960 80
2003-04-11 08:56:26 51°43.97 3°29.02 5.4 339 5 100960 80
2003-04-11 08:56:30 51°43.98 3°29.04 5.2 356 5 100960 80
2003-04-11 08:56:36 51°43.99 3°29.08 6.3 347 5 100960 80
2003-04-11 08:56:40 51°44 3°29.1 5.7 358 5 100960 80
2003-04-11 08:56:46 51°44.01 3°29.13 5.3 353 5 100960 80
2003-04-11 08:56:50 51°44.02 3°29.16 5.1 341 5 100970 80
2003-04-11 08:56:56 51°44.03 3°29.19 5.9 356 5 100970 80
2003-04-11 08:57:00 51°44.04 3°29.21 6.1 346 5 100960 79
2003-04-11 08:57:06 51°44.05 3°29.25 5.1 346 5 100960 79
2003-04-11 08:57:10 51°44.06 3°29.27 5.8 349 5 100960 79
2003-04-11 08:57:16 51°44.07 3°29.31 5.1 347 5 100960 79
2003-04-11 08:57:20 51°44.08 3°29.33 5.5 348 5 100970 79
2003-04-11 08:57:26 51°44.09 3°29.36 5.2 342 5 100970 79
2003-04-11 08:57:30 51°44.1 3°29.39 5.8 357 5 100960 79
2003-04-11 08:57:36 51°44.11 3°29.42 5 344 5 100960 79
2003-04-11 08:57:40 51°44.12 3°29.44 5.2 353 5 100960 79
2003-04-11 08:57:46 51°44.13 3°29.48 6 346 5 100960 79
2003-04-11 08:57:50 51°44.14 3°29.5 5.6 349 5 100970 79
2003-04-11 08:57:56 51°44.16 3°29.54 5.6 340 5 100970 79
2003-04-11 08:58:00 51°44.16 3°29.56 5.1 347 5 100960 79
2003-04-11 08:58:06 51°44.18 3°29.59 4.9 343 5 100960 79
2003-04-11 08:58:10 51°44.18 3°29.62 4.9 344 5 100960 78
2003-04-11 08:58:16 51°44.2 3°29.65 5 341 5 100960 78
2003-04-11 08:58:20 51°44.2 3°29.68 4.6 343 5.1 100970 78
2003-04-11 08:58:26 51°44.22 3°29.71 5.6 339 5.1 100970 78
2003-04-11 08:58:30 51°44.23 3°29.73 5 349 5.1 100960 78
2003-04-11 08:58:36 51°44.24 3°29.77 5.3 348 5.1 100960 78
2003-04-11 08:58:40 51°44.25 3°29.79 5.5 349 5.1 100960 78
2003-04-11 08:58:46 51°44.26 3°29.83 4.9 346 5.1 100960 78
2003-04-11 08:58:50 51°44.27 3°29.85 5.6 347 5.1 100970 78
2003-04-11 08:58:56 51°44.28 3°29.88 5.8 349 5.1 100970 78
2003-04-11 08:59:00 51°44.29 3°29.91 5 344 5.1 100970 78
2003-04-11 08:59:06 51°44.3 3°29.94 4.9 345 5.1 100970 78
2003-04-11 08:59:10 51°44.31 3°29.96 5.7 354 5.1 100960 78
2003-04-11 08:59:16 51°44.32 3°30 4.9 347 5.1 100960 78
2003-04-11 08:59:20 51°44.33 3°30.02 5.2 345 5.1 100970 78
2003-04-11 08:59:26 51°44.34 3°30.06 4.8 347 5.1 100970 78
2003-04-11 08:59:30 51°44.35 3°30.08 4.9 347 5.1 100970 78
2003-04-11 08:59:36 51°44.37 3°30.11 4.9 341 5.1 100970 78
2003-04-11 08:59:40 51°44.37 3°30.14 4.8 346 5.1 100960 78
2003-04-11 08:59:46 51°44.39 3°30.17 5.2 346 5.1 100960 78
2003-04-11 08:59:50 51°44.4 3°30.19 5.1 348 5.1 100960 78
2003-04-11 08:59:56 51°44.41 3°30.23 4.8 347 5.1 100960 78
2003-04-11 09:00:00 51°44.42 3°30.25 5.2 339 5.2 100970 77
2003-04-11 09:00:06 51°44.43 3°30.28 4.4 335 5.2 100970 77
2003-04-11 09:00:10 51°44.44 3°30.31 4.5 345 5.1 100970 77
2003-04-11 09:00:16 51°44.45 3°30.34 4.9 348 5.1 100970 77
2003-04-11 09:00:20 51°44.46 3°30.36 5.1 349 5.1 100960 77
2003-04-11 09:00:26 51°44.47 3°30.4 5.3 352 5.1 100960 77
2003-04-11 09:00:30 51°44.48 3°30.42 5.1 350 5.1 100970 77
2003-04-11 09:00:36 51°44.49 3°30.46 4.8 346 5.1 100970 77
2003-04-11 09:00:40 51°44.5 3°30.48 5.2 343 5.2 100960 77
2003-04-11 09:00:46 51°44.51 3°30.51 4.8 348 5.2 100960 77
2003-04-11 09:00:50 51°44.52 3°30.54 5 343 5.2 100960 77
2003-04-11 09:00:56 51°44.54 3°30.57 4.8 351 5.2 100960 77
2003-04-11 09:01:00 51°44.54 3°30.6 4.9 339 5.2 100970 77
2003-04-11 09:01:06 51°44.56 3°30.63 4.6 349 5.2 100970 77
2003-04-11 09:01:10 51°44.57 3°30.65 4.8 342 5.2 100970 77
2003-04-11 09:01:16 51°44.58 3°30.69 4.5 340 5.2 100970 77
2003-04-11 09:01:20 51°44.59 3°30.71 4.9 344 5.2 100960 77
2003-04-11 09:01:26 51°44.6 3°30.75 4.6 347 5.2 100960 77
2003-04-11 09:01:30 51°44.61 3°30.77 4.8 353 5.2 100980 77
2003-04-11 09:01:36 51°44.62 3°30.8 5 345 5.2 100980 77
2003-04-11 09:01:40 51°44.63 3°30.83 4.6 349 5.3 100970 77
2003-04-11 09:01:46 51°44.64 3°30.86 5.3 347 5.3 100970 77
2003-04-11 09:01:50 51°44.65 3°30.89 4.6 348 5.3 100980 78
2003-04-11 09:01:56 51°44.66 3°30.92 5.1 350 5.3 100980 78
2003-04-11 09:02:00 51°44.67 3°30.94 4.9 348 5.3 100970 77
2003-04-11 09:02:06 51°44.68 3°30.98 4.8 349 5.3 100970 77
2003-04-11 09:02:10 51°44.69 3°31 4.5 352 5.3 100970 77
2003-04-11 09:02:16 51°44.71 3°31.04 4.8 340 5.3 100970 77
2003-04-11 09:02:20 51°44.71 3°31.06 4.7 347 5.3 100970 77
2003-04-11 09:02:26 51°44.73 3°31.1 4.4 350 5.3 100970 77
2003-04-11 09:02:30 51°44.74 3°31.12 5.1 349 5.2 100970 76
2003-04-11 09:02:36 51°44.75 3°31.16 5 351 5.2 100970 76
2003-04-11 09:02:40 51°44.76 3°31.18 4.8 352 5.2 100970 76
2003-04-11 09:02:46 51°44.77 3°31.21 5 352 5.2 100970 76
2003-04-11 09:02:50 51°44.78 3°31.24 4.8 348 5.2 100970 76
2003-04-11 09:02:56 51°44.79 3°31.27 5 356 5.2 100970 76
2003-04-11 09:03:00 51°44.8 3°31.3 5.2 347 5.2 100970 76
2003-04-11 09:03:06 51°44.81 3°31.33 4.9 344 5.2 100970 76
2003-04-11 09:03:10 51°44.82 3°31.35 4.8 350 5.2 100970 76
2003-04-11 09:03:16 51°44.84 3°31.39 4.7 349 5.2 100970 76
2003-04-11 09:03:20 51°44.84 3°31.41 4.5 350 5.2 100970 75
2003-04-11 09:03:26 51°44.86 3°31.45 4.6 347 5.2 100970 75
2003-04-11 09:03:30 51°44.87 3°31.47 4.6 346 5.2 100970 75
2003-04-11 09:03:36 51°44.88 3°31.51 4.4 345 5.2 100970 75
2003-04-11 09:03:40 51°44.89 3°31.53 4.6 349 5.2 100970 75
2003-04-11 09:03:46 51°44.9 3°31.56 4.4 350 5.2 100970 75
2003-04-11 09:03:50 51°44.91 3°31.59 4.7 347 5.2 100980 75
2003-04-11 09:03:56 51°44.92 3°31.62 4.5 347 5.2 100980 75
2003-04-11 09:04:00 51°44.93 3°31.65 4.3 350 5.2 100970 75
2003-04-11 09:04:06 51°44.94 3°31.68 4.8 351 5.2 100970 75
2003-04-11 09:04:10 51°44.95 3°31.7 4.4 337 5.2 100980 75
2003-04-11 09:04:16 51°44.96 3°31.74 4.3 352 5.2 100980 75
2003-04-11 09:04:20 51°44.97 3°31.76 4.2 345 5.3 100970 75
2003-04-11 09:04:26 51°44.99 3°31.8 4.2 346 5.3 100970 75
2003-04-11 09:04:30 51°44.99 3°31.82 4.2 347 5.3 100970 75
2003-04-11 09:04:36 51°45.01 3°31.86 4.1 343 5.3 100970 75
2003-04-11 09:04:40 51°45.01 3°31.88 4.1 345 5.3 100980 75
2003-04-11 09:04:46 51°45.03 3°31.91 4.5 347 5.3 100980 75
2003-04-11 09:04:50 51°45.04 3°31.94 4.6 357 5.3 100970 75
2003-04-11 09:04:56 51°45.05 3°31.97 4.3 341 5.3 100970 75
2003-04-11 09:05:00 51°45.06 3°32 4.5 352 5.3 100980 75
2003-04-11 09:05:06 51°45.07 3°32.03 4 344 5.3 100980 75
2003-04-11 09:05:10 51°45.08 3°32.05 4.4 346 5.3 100980 74
2003-04-11 09:05:16 51°45.09 3°32.09 4.2 360 5.3 100980 74
2003-04-11 09:05:20 51°45.1 3°32.11 3.9 341 5.3 100980 75
2003-04-11 09:05:26 51°45.11 3°32.15 4.3 350 5.3 100980 75
2003-04-11 09:05:30 51°45.12 3°32.17 4.8 356 5.3 100970 75
2003-04-11 09:05:36 51°45.13 3°32.21 4.9 342 5.3 100970 75
2003-04-11 09:05:40 51°45.14 3°32.23 4.6 341 5.3 100970 75
2003-04-11 09:05:46 51°45.15 3°32.26 4.3 349 5.3 100970 75
2003-04-11 09:05:50 51°45.16 3°32.29 4.5 347 5.3 100980 75
2003-04-11 09:05:56 51°45.17 3°32.32 4.5 349 5.3 100980 75
2003-04-11 09:06:00 51°45.18 3°32.35 4 346 5.3 100970 75
2003-04-11 09:06:06 51°45.2 3°32.38 4 343 5.3 100970 75
2003-04-11 09:06:10 51°45.2 3°32.41 3.8 344 5.3 100980 74
2003-04-11 09:06:16 51°45.22 3°32.44 4 346 5.3 100980 74
2003-04-11 09:06:20 51°45.22 3°32.46 4.8 342 5.3 100980 74
2003-04-11 09:06:26 51°45.24 3°32.5 4.1 354 5.3 100980 74
2003-04-11 09:06:30 51°45.24 3°32.52 4.2 341 5.3 100970 74
2003-04-11 09:06:36 51°45.26 3°32.56 4.2 354 5.3 100970 74
2003-04-11 09:06:40 51°45.27 3°32.58 4.8 339 5.3 100970 74
2003-04-11 09:06:46 51°45.28 3°32.62 4.8 352 5.3 100970 74
2003-04-11 09:06:50 51°45.29 3°32.64 5.3 350 5.3 100980 74
2003-04-11 09:06:56 51°45.3 3°32.67 4.8 353 5.3 100980 74
2003-04-11 09:07:00 51°45.31 3°32.7 4.8 351 5.3 100970 74
2003-04-11 09:07:06 51°45.32 3°32.73 5 347 5.3 100970 74
2003-04-11 09:07:10 51°45.33 3°32.76 5.2 352 5.4 100980 74
2003-04-11 09:07:16 51°45.34 3°32.79 5.2 355 5.4 100980 74
2003-04-11 09:07:20 51°45.35 3°32.81 4.8 348 5.4 100970 74
2003-04-11 09:07:26 51°45.36 3°32.85 5.3   5.4 100970 74
2003-04-11 09:07:30 51°45.37 3°32.87 4.5 353 5.4 100970 74
2003-04-11 09:07:36 51°45.38 3°32.91 4.4 352 5.4 100970 74
2003-04-11 09:07:40 51°45.39 3°32.93 4.6 344 5.4 100970 74
2003-04-11 09:07:46 51°45.41 3°32.97 4.4 354 5.4 100970 74
2003-04-11 09:07:50 51°45.41 3°32.99 4.7 344 5.4 100970 74
2003-04-11 09:07:56 51°45.43 3°33.02 5.2 354 5.4 100970 74
2003-04-11 09:08:00 51°45.44 3°33.05 4.3 346 5.4 100980 74
2003-04-11 09:08:06 51°45.45 3°33.08 4.2 336 5.4 100980 74
2003-04-11 09:08:10 51°45.46 3°33.1 5 347 5.4 100980 74
2003-04-11 09:08:16 51°45.47 3°33.14 4.9 347 5.4 100980 74
2003-04-11 09:08:20 51°45.48 3°33.16 4.2 346 5.4 100970 74
2003-04-11 09:08:26 51°45.49 3°33.19 4.2 344 5.4 100970 74
2003-04-11 09:08:30 51°45.5 3°33.22 4.5 347 5.4 100980 74
2003-04-11 09:08:36 51°45.51 3°33.25 4.3 352 5.4 100980 74
2003-04-11 09:08:40 51°45.52 3°33.27 4.7 348 5.4 100970 74
2003-04-11 09:08:46 51°45.53 3°33.31 4.3 352 5.4 100970 74
2003-04-11 09:08:50 51°45.54 3°33.33 4.6 348 5.4 100980 74
2003-04-11 09:08:56 51°45.55 3°33.36 4.8 353 5.4 100980 74
2003-04-11 09:09:00 51°45.56 3°33.39 4.5 355 5.4 100980 74
2003-04-11 09:09:06 51°45.57 3°33.42 4.4 344 5.4 100980 74
2003-04-11 09:09:10 51°45.58 3°33.44 4.4 351 5.4 100970 74
2003-04-11 09:09:16 51°45.59 3°33.48 4.8 348 5.4 100970 74
2003-04-11 09:09:20 51°45.6 3°33.5 4.2 352 5.4 100970 74
2003-04-11 09:09:26 51°45.61 3°33.53 4.9 347 5.4 100970 74
2003-04-11 09:09:30 51°45.62 3°33.56 4.8 354 5.5 100970 74
2003-04-11 09:09:36 51°45.63 3°33.59 4.7 355 5.5 100970 74
2003-04-11 09:09:40 51°45.64 3°33.61 5 356 5.5 100970 74
2003-04-11 09:09:46 51°45.65 3°33.65 5.4 351 5.5 100970 74
2003-04-11 09:09:50 51°45.66 3°33.67 4.4 345 5.5 100970 74
2003-04-11 09:09:56 51°45.67 3°33.7 5.1 353 5.5 100970 74
2003-04-11 09:10:00 51°45.68 3°33.73 4.9 348 5.5 100980 74
2003-04-11 09:10:06 51°45.69 3°33.76 5.4 348 5.5 100980 74
2003-04-11 09:10:10 51°45.7 3°33.78 4.4 350 5.5 100960 74
2003-04-11 09:10:16 51°45.72 3°33.82 4.3 347 5.5 100960 74
2003-04-11 09:10:20 51°45.72 3°33.84 4.9 340 5.5 100980 75
2003-04-11 09:10:26 51°45.74 3°33.87 4.7 343 5.5 100980 75
2003-04-11 09:10:30 51°45.74 3°33.9 4.8 345 5.6 100970 75
2003-04-11 09:10:36 51°45.76 3°33.93 4.7 344 5.6 100970 75
2003-04-11 09:10:40 51°45.77 3°33.95 4.9 348 5.6 100980 75
2003-04-11 09:10:46 51°45.78 3°33.99 4.9 343 5.6 100980 75
2003-04-11 09:10:50 51°45.79 3°34.01 4.3 338 5.6 100980 75
2003-04-11 09:10:56 51°45.8 3°34.04 4.5 343 5.6 100980 75
2003-04-11 09:11:00 51°45.81 3°34.07 4.4 348 5.6 100980 75
2003-04-11 09:11:06 51°45.82 3°34.1 4.7 347 5.6 100980 75
2003-04-11 09:11:10 51°45.83 3°34.12 5.3 345 5.6 100970 75
2003-04-11 09:11:16 51°45.84 3°34.16 5.2 345 5.6 100970 75
2003-04-11 09:11:20 51°45.85 3°34.18 4.3 343 5.6 100980 75
2003-04-11 09:11:26 51°45.86 3°34.21 4.5 341 5.6 100980 75
2003-04-11 09:11:30 51°45.87 3°34.24 4.2 343 5.6 100980 75
2003-04-11 09:11:36 51°45.88 3°34.27 4.2 346 5.6 100980 75
2003-04-11 09:11:40 51°45.89 3°34.29 4.2 352 5.6 100970 76
2003-04-11 09:11:46 51°45.9 3°34.33 5 338 5.6 100970 76
2003-04-11 09:11:50 51°45.91 3°34.35 4.6 350 5.6 100980 76
2003-04-11 09:11:56 51°45.92 3°34.38 4.9 347 5.6 100980 76
2003-04-11 09:12:00 51°45.93 3°34.41 4.2 350 5.6 100980 76
2003-04-11 09:12:06 51°45.94 3°34.44 5 345 5.6 100980 76
2003-04-11 09:12:10 51°45.95 3°34.46 4.5 343 5.6 100970 76
2003-04-11 09:12:16 51°45.96 3°34.5 4.4 348 5.6 100970 76
2003-04-11 09:12:20 51°45.97 3°34.52 4.4 344 5.6 100980 76
2003-04-11 09:12:26 51°45.98 3°34.56 4.9 358 5.6 100980 76
2003-04-11 09:12:30 51°45.99 3°34.58 4.5 341 5.6 100980 76
2003-04-11 09:12:36 51°46 3°34.62 5 342 5.6 100980 76
2003-04-11 09:12:40 51°46 3°34.64 4.9 340 5.6 100980 76
2003-04-11 09:12:46 51°46.01 3°34.68 4.8 341 5.6 100980 76
2003-04-11 09:12:50 51°46.02 3°34.7 4.7 353 5.6 100970 76
2003-04-11 09:12:56 51°46.03 3°34.74 4.7 334 5.6 100970 76
2003-04-11 09:13:00 51°46.03 3°34.76 4.6 347 5.6 100980 76
2003-04-11 09:13:06 51°46.04 3°34.8 5.8 346 5.6 100980 76
2003-04-11 09:13:10 51°46.05 3°34.82 4.7 343 5.6 100980 76
2003-04-11 09:13:16 51°46.05 3°34.86 5 342 5.6 100980 76
2003-04-11 09:13:20 51°46.06 3°34.89 5.4 340 5.6 100980 76
2003-04-11 09:13:26 51°46.07 3°34.92 4.8 336 5.6 100980 76
2003-04-11 09:13:30 51°46.08 3°34.95 4.9 340 5.6 100970 76
2003-04-11 09:13:36 51°46.08 3°34.98 4.7 335 5.6 100970 76
2003-04-11 09:13:40 51°46.09 3°35.01 4.6 345 5.6 100980 76
2003-04-11 09:13:46 51°46.1 3°35.05 4.9 334 5.6 100980 76
2003-04-11 09:13:50 51°46.1 3°35.07 5 336 5.6 100980 77
2003-04-11 09:13:56 51°46.11 3°35.11 5.1 331 5.6 100980 77
2003-04-11 09:14:00 51°46.12 3°35.13 5.3 343 5.6 100980 77
2003-04-11 09:14:06 51°46.12 3°35.17 6 333 5.6 100980 77
2003-04-11 09:14:10 51°46.13 3°35.19 5.5 341 5.6 100980 77
2003-04-11 09:14:16 51°46.14 3°35.23 5.5 331 5.6 100980 77
2003-04-11 09:14:20 51°46.14 3°35.26 5.2 338 5.6 100980 77
2003-04-11 09:14:26 51°46.15 3°35.29 5.2 332 5.6 100980 77
2003-04-11 09:14:30 51°46.15 3°35.32 5.2 338 5.6 100980 77
2003-04-11 09:14:36 51°46.16 3°35.36 5.3 331 5.6 100980 77
2003-04-11 09:14:40 51°46.16 3°35.38 4.9 342 5.6 100980 77
2003-04-11 09:14:46 51°46.17 3°35.42 5.4 331 5.6 100980 77
2003-04-11 09:14:50 51°46.18 3°35.44 4.7 335 5.6 100980 77
2003-04-11 09:14:56 51°46.18 3°35.48 4.9 329 5.6 100980 77
2003-04-11 09:15:00 51°46.19 3°35.51 4.5 331 5.6 100980 77
2003-04-11 09:15:06 51°46.19 3°35.54 4.3 333 5.6 100980 77
2003-04-11 09:15:10 51°46.2 3°35.57 4.8 334 5.6 100980 77
2003-04-11 09:15:16 51°46.2 3°35.61 4.6 337 5.6 100980 77
2003-04-11 09:15:20 51°46.21 3°35.63 5.2 339 5.6 100980 77
2003-04-11 09:15:26 51°46.21 3°35.67 5.5 328 5.6 100980 77
2003-04-11 09:15:30 51°46.22 3°35.69 4.7 330 5.5 100990 77
2003-04-11 09:15:36 51°46.23 3°35.73 4.5 333 5.5 100990 77
2003-04-11 09:15:40 51°46.23 3°35.76 4.8 327 5.6 100990 77
2003-04-11 09:15:46 51°46.24 3°35.79 4.8 339 5.6 100990 77
2003-04-11 09:15:50 51°46.24 3°35.82 5.1 327 5.6 100980 78
2003-04-11 09:15:56 51°46.25 3°35.86 5 330 5.6 100980 78
2003-04-11 09:16:00 51°46.25 3°35.88 5.6 325 5.6 100980 77
2003-04-11 09:16:06 51°46.26 3°35.92 5.5 330 5.6 100980 77
2003-04-11 09:16:10 51°46.26 3°35.94 4.9 329 5.6 100980 78
2003-04-11 09:16:16 51°46.27 3°35.98 5.8 329 5.6 100980 78
2003-04-11 09:16:20 51°46.27 3°36.01 5.4 331 5.6 100990 78
2003-04-11 09:16:26 51°46.28 3°36.04 5.3 318 5.6 100990 78
2003-04-11 09:16:30 51°46.28 3°36.07 5 326 5.6 100980 78
2003-04-11 09:16:36 51°46.29 3°36.11 5.2 325 5.6 100980 78
2003-04-11 09:16:40 51°46.3 3°36.13 5.4 330 5.6 100980 78
2003-04-11 09:16:46 51°46.3 3°36.17 5.3 319 5.6 100980 78
2003-04-11 09:16:50 51°46.31 3°36.19 5.3 329 5.5 100980 78
2003-04-11 09:16:56 51°46.31 3°36.23 5.1 323 5.5 100980 78
2003-04-11 09:17:00 51°46.32 3°36.26 5.1 331 5.5 100980 77
2003-04-11 09:17:06 51°46.33 3°36.29 5 338 5.5 100980 77
2003-04-11 09:17:10 51°46.33 3°36.32 4.9 327 5.5 100980 77
2003-04-11 09:17:16 51°46.34 3°36.36 4.5 338 5.5 100980 77
2003-04-11 09:17:20 51°46.35 3°36.38 4.4 336 5.5 100990 77
2003-04-11 09:17:26 51°46.36 3°36.42 4.9 335 5.5 100990 77
2003-04-11 09:17:30 51°46.36 3°36.44 5.4 329 5.5 100970 77
2003-04-11 09:17:36 51°46.37 3°36.48 4.7 337 5.5 100970 77
2003-04-11 09:17:40 51°46.37 3°36.5 4.9 335 5.5 100980 77
2003-04-11 09:17:46 51°46.38 3°36.54 4.8 336 5.5 100980 77
2003-04-11 09:17:50 51°46.39 3°36.56 4.5 329 5.5 100970 77
2003-04-11 09:17:56 51°46.4 3°36.6 4.6 327 5.5 100970 77
2003-04-11 09:18:00 51°46.4 3°36.63 4.8 334 5.5 100980 77
2003-04-11 09:18:06 51°46.41 3°36.66 5.3 333 5.5 100980 77
2003-04-11 09:18:10 51°46.42 3°36.69 4.9 327 5.5 100980 78
2003-04-11 09:18:16 51°46.43 3°36.72 5.1 330 5.5 100980 78
2003-04-11 09:18:20 51°46.43 3°36.75 4.9 327 5.5 100990 78
2003-04-11 09:18:26 51°46.44 3°36.78 5.3 323 5.5 100990 78
2003-04-11 09:18:30 51°46.45 3°36.81 5.2 331 5.5 100970 78
2003-04-11 09:18:36 51°46.46 3°36.85 5.3 331 5.5 100970 78
2003-04-11 09:18:40 51°46.46 3°36.87 4.7 328 5.5 100980 78
2003-04-11 09:18:46 51°46.47 3°36.91 4.9 325 5.5 100980 78
2003-04-11 09:18:50 51°46.48 3°36.93 4.6 333 5.5 100980 78
2003-04-11 09:18:56 51°46.49 3°36.97 4.9 331 5.5 100980 78
2003-04-11 09:19:00 51°46.49 3°36.99 4.7 335 5.5 100990 78
2003-04-11 09:19:06 51°46.5 3°37.03 4.8 333 5.5 100990 78
2003-04-11 09:19:10 51°46.51 3°37.05 4.7 333 5.5 100980 78
2003-04-11 09:19:16 51°46.52 3°37.09 5.3 330 5.5 100980 78
2003-04-11 09:19:20 51°46.53 3°37.11 4.9 336 5.5 100990 78
2003-04-11 09:19:26 51°46.54 3°37.15 5.8 329 5.5 100990 78
2003-04-11 09:19:30 51°46.54 3°37.17 5.6 323 5.5 100980 78
2003-04-11 09:19:36 51°46.55 3°37.21 5.4 316 5.5 100980 78
2003-04-11 09:19:40 51°46.56 3°37.24 5.5 327 5.5 100990 78
2003-04-11 09:19:46 51°46.57 3°37.27 5.9 321 5.5 100990 78
2003-04-11 09:19:50 51°46.57 3°37.3 5.7 321 5.5 100970 78
2003-04-11 09:19:56 51°46.58 3°37.33 5.9 321 5.5 100970 78
2003-04-11 09:20:00 51°46.59 3°37.36 6.2 319 5.5 100990 78
2003-04-11 09:20:06 51°46.6 3°37.39 5.7 316 5.5 100990 78
2003-04-11 09:20:10 51°46.6 3°37.42 6.8 316 5.5 100980 78
2003-04-11 09:20:16 51°46.61 3°37.46 6.3 317 5.5 100980 78
2003-04-11 09:20:20 51°46.62 3°37.48 5.9 320 5.5 100980 79
2003-04-11 09:20:26 51°46.63 3°37.52 6.7 313 5.5 100980 79
2003-04-11 09:20:30 51°46.64 3°37.54 6.5 317 5.5 100980 79
2003-04-11 09:20:36 51°46.65 3°37.58 5.7 311 5.5 100980 79
2003-04-11 09:20:40 51°46.65 3°37.6 7.3 312 5.5 100970 79
2003-04-11 09:20:46 51°46.66 3°37.64 6.4 319 5.5 100970 79
2003-04-11 09:20:50 51°46.67 3°37.66 6 315 5.5 100970 79
2003-04-11 09:20:56 51°46.68 3°37.7 6.1 316 5.5 100970 79
2003-04-11 09:21:00 51°46.69 3°37.72 6 323 5.5 100980 79
2003-04-11 09:21:06 51°46.7 3°37.76 6.6 307 5.5 100980 79
2003-04-11 09:21:10 51°46.7 3°37.78 6.7 322 5.5 100980 79
2003-04-11 09:21:16 51°46.71 3°37.82 6.7 317 5.5 100980 79
2003-04-11 09:21:20 51°46.72 3°37.84 6.5 316 5.5 100970 79
2003-04-11 09:21:26 51°46.73 3°37.88 6.2 323 5.5 100970 79
2003-04-11 09:21:30 51°46.74 3°37.9 6.2 314 5.5 100970 79
2003-04-11 09:21:36 51°46.75 3°37.94 5.8 315 5.5 100970 79
2003-04-11 09:21:40 51°46.75 3°37.96 5.8 315 5.4 100980 79
2003-04-11 09:21:46 51°46.76 3°38 5.8 313 5.4 100980 79
2003-04-11 09:21:50 51°46.77 3°38.02 5.3 318 5.4 100980 79
2003-04-11 09:21:56 51°46.78 3°38.06 6.2 312 5.4 100980 79
2003-04-11 09:22:00 51°46.79 3°38.08 5.7 313 5.4 100990 79
2003-04-11 09:22:06 51°46.8 3°38.12 5.6 316 5.4 100990 79
2003-04-11 09:22:10 51°46.81 3°38.14 5.4 314 5.4 100980 79
2003-04-11 09:22:16 51°46.82 3°38.18 6 311 5.4 100980 79
2003-04-11 09:22:20 51°46.82 3°38.2 5.2 307 5.4 100990 79
2003-04-11 09:22:26 51°46.83 3°38.24 5.2 313 5.4 100990 79
2003-04-11 09:22:30 51°46.84 3°38.26 5.8 323 5.3 100980 79
2003-04-11 09:22:36 51°46.85 3°38.3 6.6 306 5.3 100980 79
2003-04-11 09:22:40 51°46.86 3°38.32 5.1 320 5.3 100970 79
2003-04-11 09:22:46 51°46.87 3°38.36 6.3 307 5.3 100970 79
2003-04-11 09:22:50 51°46.87 3°38.38 4.9 327 5.3 100990 79
2003-04-11 09:22:56 51°46.88 3°38.42 5.9 310 5.3 100990 79
2003-04-11 09:23:00 51°46.89 3°38.44 5.7 318 5.3 100970 79
2003-04-11 09:23:06 51°46.9 3°38.48 6.8 314 5.3 100970 79
2003-04-11 09:23:10 51°46.91 3°38.5 5.3 318 5.3 100980 79
2003-04-11 09:23:16 51°46.92 3°38.53 5.8 305 5.3 100980 79
2003-04-11 09:23:20 51°46.93 3°38.56 5.6 311 5.3 100980 79
2003-04-11 09:23:26 51°46.93 3°38.59 5.8 310 5.3 100980 79
2003-04-11 09:23:30 51°46.94 3°38.62 5.2 308 5.4 100980 80
2003-04-11 09:23:36 51°46.95 3°38.65 5.8 310 5.4 100980 80
2003-04-11 09:23:40 51°46.96 3°38.68 5.9 308 5.3 100980 80
2003-04-11 09:23:46 51°46.97 3°38.71 6 309 5.3 100980 80
2003-04-11 09:23:50 51°46.98 3°38.74 6 308 5.3 100980 80
2003-04-11 09:23:56 51°46.99 3°38.77 6.2 306 5.3 100980 80
2003-04-11 09:24:00 51°46.99 3°38.8 5.9 314 5.3 100970 80
2003-04-11 09:24:06 51°47 3°38.83 5.9 308 5.3 100970 80
2003-04-11 09:24:10 51°47.01 3°38.86 5.7 312 5.3 100980 80
2003-04-11 09:24:16 51°47.02 3°38.89 5.9 303 5.3 100980 80
2003-04-11 09:24:20 51°47.03 3°38.92 4.7 318 5.3 100990 80
2003-04-11 09:24:26 51°47.04 3°38.95 4.9 307 5.3 100990 80
2003-04-11 09:24:30 51°47.05 3°38.98 4.8 313 5.3 100980 80
2003-04-11 09:24:36 51°47.06 3°39.01 5.8 303 5.3 100980 80
2003-04-11 09:24:40 51°47.06 3°39.04 6.2 308 5.3 100980 80
2003-04-11 09:24:46 51°47.07 3°39.07 5.7 308 5.3 100980 80
2003-04-11 09:24:50 51°47.08 3°39.1 5.2 306 5.3 100980 80
2003-04-11 09:24:56 51°47.09 3°39.13 6.1 309 5.3 100980 80
2003-04-11 09:25:00 51°47.1 3°39.16 5.2 302 5.3 100980 81
2003-04-11 09:25:06 51°47.11 3°39.19 5.3 307 5.3 100980 81
2003-04-11 09:25:10 51°47.11 3°39.22 5.3 296 5.3 100990 81
2003-04-11 09:25:16 51°47.12 3°39.25 4.4 302 5.3 100990 81
2003-04-11 09:25:20 51°47.13 3°39.27 4.7 304 5.3 100980 81
2003-04-11 09:25:26 51°47.14 3°39.3 4.8 298 5.3 100980 81
2003-04-11 09:25:30 51°47.15 3°39.32 4.6 293 5.3 100970 81
2003-04-11 09:25:36 51°47.16 3°39.35 3.5 287 5.3 100970 81
2003-04-11 09:25:40 51°47.16 3°39.36 4 279 5.3 100990 81
2003-04-11 09:25:46 51°47.17 3°39.38 3.2 265 5.3 100990 81
2003-04-11 09:25:50 51°47.18 3°39.4 2.9 259 5.3 100990 81
2003-04-11 09:25:56 51°47.19 3°39.41 2.6 243 5.3 100990 81
2003-04-11 09:26:00 51°47.2 3°39.43 2.7 242 5.3 100990 82
2003-04-11 09:26:06 51°47.21 3°39.44 3 261 5.3 100990 82
2003-04-11 09:26:10 51°47.21 3°39.45 2.9 239 5.3 100990 82
2003-04-11 09:26:16 51°47.22 3°39.46 3.1 235 5.3 100990 82
2003-04-11 09:26:20 51°47.23 3°39.47 2.7 222 5.3 100980 82
2003-04-11 09:26:26 51°47.24 3°39.48 2.7 213 5.3 100980 82
2003-04-11 09:26:30 51°47.24 3°39.49 2.8 213 5.3 100990 82
2003-04-11 09:26:36 51°47.25 3°39.5 2.5 206 5.3 100990 82
2003-04-11 09:26:40 51°47.26 3°39.5 2.5 193 5.3 100990 82
2003-04-11 09:26:46 51°47.26 3°39.51 3.3 185 5.3 100990 82
2003-04-11 09:26:50 51°47.27 3°39.52 3 190 5.3 100980 82
2003-04-11 09:26:56 51°47.27 3°39.52 2.9 185 5.3 100980 82
2003-04-11 09:27:00 51°47.28 3°39.52 2.7 114 5.3 100990 82
2003-04-11 09:27:06 51°47.28 3°39.53 2.9 173 5.3 100990 82
2003-04-11 09:27:10 51°47.29 3°39.53 3.2 173 5.3 100980 82
2003-04-11 09:27:16 51°47.29 3°39.53 2.5 190 5.3 100980 82
2003-04-11 09:27:20 51°47.29 3°39.54 2.6 160 5.3 100990 82
2003-04-11 09:27:26 51°47.3 3°39.54 2.7 176 5.3 100990 82
2003-04-11 09:27:30 51°47.3 3°39.54 2.9 180 5.3 100980 82
2003-04-11 09:27:36 51°47.3 3°39.55 2.2 176 5.3 100980 82
2003-04-11 09:27:40 51°47.3 3°39.55 3 176 5.3 100990 83
2003-04-11 09:27:46 51°47.31 3°39.55 2.5 184 5.3 100990 83
2003-04-11 09:27:50 51°47.31 3°39.55 3 176 5.4 100990 83
2003-04-11 09:27:56 51°47.31 3°39.55 2.8 177 5.4 100990 83
2003-04-11 09:28:00 51°47.32 3°39.56 3.7 109 5.4 100980 83
2003-04-11 09:28:06 51°47.32 3°39.56 2.9 173 5.4 100980 83
2003-04-11 09:28:10 51°47.32 3°39.56 3.6 184 5.4 100990 83
2003-04-11 09:28:16 51°47.33 3°39.56 2.4 185 5.4 100990 83
2003-04-11 09:28:20 51°47.33 3°39.57 2.2 157 5.5 100980 83
2003-04-11 09:28:26 51°47.33 3°39.57 3.1 154 5.5 100980 83
2003-04-11 09:28:30 51°47.33 3°39.57 3.2 173 5.5 100990 83
2003-04-11 09:28:36 51°47.34 3°39.57 3.1 162 5.5 100990 83
2003-04-11 09:28:40 51°47.34 3°39.57 3.3 173 5.6 100990 83
2003-04-11 09:28:46 51°47.34 3°39.58 3.4 168 5.6 100990 83
2003-04-11 09:28:50 51°47.34 3°39.58 3.4 174 5.6 100980 84
2003-04-11 09:28:56 51°47.35 3°39.58 2.8 175 5.6 100980 84
2003-04-11 09:29:00 51°47.35 3°39.58 3.6 179 5.7 100990 84
2003-04-11 09:29:06 51°47.35 3°39.59 3.1 176 5.7 100990 84
2003-04-11 09:29:10 51°47.35 3°39.59 2.7 172 5.7 100990 84
2003-04-11 09:29:16 51°47.36 3°39.59 3.9 173 5.7 100990 84
2003-04-11 09:29:20 51°47.36 3°39.59 3.8 104 5.8 100980 83
2003-04-11 09:29:26 51°47.36 3°39.6 3.7 183 5.8 100980 83
2003-04-11 09:29:30 51°47.36 3°39.6 3.4 183 5.8 101000 83
2003-04-11 09:29:36 51°47.37 3°39.6 3.3 181 5.8 101000 83
2003-04-11 09:29:40 51°47.37 3°39.6 3 176 5.8 100980 83
2003-04-11 09:29:46 51°47.37 3°39.6 3 174 5.8 100980 83
2003-04-11 09:29:50 51°47.37 3°39.61 3 163 5.8 100990 82
2003-04-11 09:29:56 51°47.38 3°39.61 3.2 176 5.8 100990 82
2003-04-11 09:30:00 51°47.38 3°39.61 4.5 186 5.8 100990 82
2003-04-11 09:30:06 51°47.38 3°39.61 2.9 175 5.8 100990 82
2003-04-11 09:30:10 51°47.38 3°39.61 3.6 176 5.8 100980 82
2003-04-11 09:30:16 51°47.39 3°39.62 3.9 178 5.8 100980 82
2003-04-11 09:30:20 51°47.39 3°39.62 3 176 5.9 100990 83
2003-04-11 09:30:26 51°47.39 3°39.62 2.8 169 5.9 100990 83
2003-04-11 09:30:30 51°47.39 3°39.62 3.2 176 5.8 101000 82
2003-04-11 09:30:36 51°47.4 3°39.63 3.8 179 5.8 101000 82
2003-04-11 09:30:40 51°47.4 3°39.63 3 166 5.8 100980 82
2003-04-11 09:30:46 51°47.4 3°39.63 2.7 160 5.8 100980 82
2003-04-11 09:30:50 51°47.4 3°39.63 2.7 184 5.8 101000 82
2003-04-11 09:30:56 51°47.41 3°39.63 2.2 187 5.8 101000 82
2003-04-11 09:31:00 51°47.41 3°39.64 2 171 5.8 100990 82
2003-04-11 09:31:06 51°47.41 3°39.64 2.7 179 5.8 100990 82
2003-04-11 09:31:10 51°47.41 3°39.64 2.8 164 5.8 100990 82
2003-04-11 09:31:16 51°47.42 3°39.64 2.7 172 5.8 100990 82
2003-04-11 09:31:20 51°47.42 3°39.64 2.7 160 5.8 101000 82
2003-04-11 09:31:26 51°47.42 3°39.65 3 169 5.8 101000 82
2003-04-11 09:31:30 51°47.42 3°39.65 2.6 170 5.9 100990 82
2003-04-11 09:31:36 51°47.42 3°39.65 2.3 183 5.9 100990 82
2003-04-11 09:31:40 51°47.43 3°39.65 2.3 158 5.9 100990 83
2003-04-11 09:31:46 51°47.43 3°39.66 2.6 166 5.9 100990 83
2003-04-11 09:31:50 51°47.43 3°39.66 3.2 157 6 100980 83
2003-04-11 09:31:56 51°47.43 3°39.66 2.8 158 6 100980 83
2003-04-11 09:32:00 51°47.43 3°39.66 2.1 168 6.1 100990 83
2003-04-11 09:32:06 51°47.44 3°39.66 3.4 163 6.1 100990 83
2003-04-11 09:32:10 51°47.44 3°39.67 2.3 172 6.1 100980 83
2003-04-11 09:32:16 51°47.44 3°39.67 2.6 170 6.1 100980 83
2003-04-11 09:32:20 51°47.44 3°39.67 2.2 167 6.2 100980 83
2003-04-11 09:32:26 51°47.45 3°39.67 2.4 176 6.2 100980 83
2003-04-11 09:32:30 51°47.45 3°39.67 2.3 181 6.2 100990 82
2003-04-11 09:32:36 51°47.45 3°39.68 2.5 149 6.2 100990 82
2003-04-11 09:32:40 51°47.45 3°39.68 2.7 175 6.2 100990 82
2003-04-11 09:32:46 51°47.45 3°39.68 2.4 164 6.2 100990 82
2003-04-11 09:32:50 51°47.46 3°39.68 2.5 178 6.2 100990 82
2003-04-11 09:32:56 51°47.46 3°39.68 2.7 161 6.2 100990 82
2003-04-11 09:33:00 51°47.46 3°39.69 3.1 173 6.3 100990 82
2003-04-11 09:33:06 51°47.46 3°39.69 2.4 166 6.3 100990 82
2003-04-11 09:33:10 51°47.46 3°39.69 2.2 166 6.3 100990 82
2003-04-11 09:33:16 51°47.47 3°39.69 2.5 153 6.3 100990 82
2003-04-11 09:33:20 51°47.47 3°39.69 2.4 187 6.4 100990 82
2003-04-11 09:33:26 51°47.47 3°39.7 2.3 168 6.4 100990 82
2003-04-11 09:33:30 51°47.47 3°39.7 2.8 178 6.4 100980 81
2003-04-11 09:33:36 51°47.47 3°39.7 2.7 174 6.4 100980 81
2003-04-11 09:33:40 51°47.47 3°39.7 2.5 168 6.4 100990 81
2003-04-11 09:33:46 51°47.48 3°39.7 3.2 186 6.4 100990 81
2003-04-11 09:33:50 51°47.48 3°39.71 2.6 171 6.4 100990 81
2003-04-11 09:33:56 51°47.48 3°39.71 3.4 183 6.4 100990 81
2003-04-11 09:34:00 51°47.48 3°39.71 2.5 168 6.5 100990 80
2003-04-11 09:34:06 51°47.48 3°39.71 3.4 164 6.5 100990 80
2003-04-11 09:34:10 51°47.49 3°39.71 3.6 159 6.5 100990 80
2003-04-11 09:34:16 51°47.49 3°39.72 2.5 176 6.5 100990 80
2003-04-11 09:34:20 51°47.49 3°39.72 2.9 168 6.5 100980 80
2003-04-11 09:34:26 51°47.49 3°39.72 2.7 176 6.5 100980 80
2003-04-11 09:34:30 51°47.49 3°39.72 2.6 172 6.5 100990 79
2003-04-11 09:34:36 51°47.5 3°39.72 2.6 172 6.5 100990 79
2003-04-11 09:34:40 51°47.5 3°39.72 2 161 6.5 100980 79
2003-04-11 09:34:46 51°47.5 3°39.73 1.8 180 6.5 100980 79
2003-04-11 09:34:50 51°47.5 3°39.73 2.6 162 6.5 101000 79
2003-04-11 09:34:56 51°47.5 3°39.73 2.2 164 6.5 101000 79
2003-04-11 09:35:00 51°47.5 3°39.73 3.2 172 6.6 100980 79
2003-04-11 09:35:06 51°47.51 3°39.74 2.6 166 6.6 100980 79
2003-04-11 09:35:10 51°47.51 3°39.74 2.4 164 6.6 100990 79
2003-04-11 09:35:16 51°47.51 3°39.74 2.3 182 6.6 100990 79
2003-04-11 09:35:20 51°47.51 3°39.74 2.4 176 6.6 100980 79
2003-04-11 09:35:26 51°47.52 3°39.75 3.5 184 6.6 100980 79
2003-04-11 09:35:30 51°47.52 3°39.75 3.9 192 6.7 101000 79
2003-04-11 09:35:36 51°47.52 3°39.76 3.8 194 6.7 101000 79
2003-04-11 09:35:40 51°47.53 3°39.76 3.5 207 6.7 100990 79
2003-04-11 09:35:46 51°47.53 3°39.77 3.6 215 6.7 100990 79
2003-04-11 09:35:50 51°47.53 3°39.77 4.1 228 6.7 100990 79
2003-04-11 09:35:56 51°47.54 3°39.78 3.6 233 6.7 100990 79
2003-04-11 09:36:00 51°47.54 3°39.79 4 236 6.6 100990 78
2003-04-11 09:36:06 51°47.54 3°39.8 3.7 240 6.6 100990 78
2003-04-11 09:36:10 51°47.54 3°39.8 3.8 248 6.6 100990 77
2003-04-11 09:36:16 51°47.55 3°39.81 4.2 255 6.6 100990 77
2003-04-11 09:36:20 51°47.55 3°39.82 4.8 269 6.5 100990 77
2003-04-11 09:36:26 51°47.55 3°39.83 5.7 273 6.5 100990 77
2003-04-11 09:36:30 51°47.55 3°39.84 5.1 277 6.5 100990 77
2003-04-11 09:36:36 51°47.55 3°39.85 3.7 282 6.5 100990 77
2003-04-11 09:36:40 51°47.55 3°39.86 4.9 288 6.4 100980 77
2003-04-11 09:36:46 51°47.55 3°39.87 5.5 295 6.4 100980 77
2003-04-11 09:36:50 51°47.55 3°39.88 5.5 300 6.4 100980 77
2003-04-11 09:36:56 51°47.54 3°39.89 5.5 300 6.4 100980 77
2003-04-11 09:37:00 51°47.54 3°39.89 5.2 307 6.3 100980 77
2003-04-11 09:37:06 51°47.54 3°39.9 6 305 6.3 100980 77
2003-04-11 09:37:10 51°47.54 3°39.91 6.1 309 6.3 100990 77
2003-04-11 09:37:16 51°47.53 3°39.92 5.9 306 6.3 100990 77
2003-04-11 09:37:20 51°47.53 3°39.92 6.1 312 6.2 100980 77
2003-04-11 09:37:26 51°47.52 3°39.93 6.2 321 6.2 100980 77
2003-04-11 09:37:30 51°47.52 3°39.93 6.2 322 6.2 100980 78
2003-04-11 09:37:36 51°47.52 3°39.94 6.6 330 6.2 100980 78
2003-04-11 09:37:40 51°47.51 3°39.94 6.5 330 6.1 100980 78
2003-04-11 09:37:46 51°47.51 3°39.94 6.1 336 6.1 100980 78
2003-04-11 09:37:50 51°47.5 3°39.94 6.4 341 6 100980 78
2003-04-11 09:37:56 51°47.5 3°39.94 6.3 343 6 100980 78
2003-04-11 09:38:00 51°47.49 3°39.94 6.1 348 6 100970 78
2003-04-11 09:38:06 51°47.49 3°39.94 6.1 346 6 100970 78
2003-04-11 09:38:10 51°47.48 3°39.94 6.3 343 5.9 100980 78
2003-04-11 09:38:16 51°47.48 3°39.94 6.6 348 5.9 100980 78
2003-04-11 09:38:20 51°47.48 3°39.94 7.7 339 5.8 100980 78
2003-04-11 09:38:26 51°47.47 3°39.94 7.2 338 5.8 100980 78
2003-04-11 09:38:30 51°47.47 3°39.95 7.3 334 5.8 100990 79
2003-04-11 09:38:36 51°47.46 3°39.95 6.8 335 5.8 100990 79
2003-04-11 09:38:40 51°47.46 3°39.95 6.7 339 5.8 100980 79
2003-04-11 09:38:46 51°47.45 3°39.95 7.2 349 5.8 100980 79
2003-04-11 09:38:50 51°47.45 3°39.95 7.4 348 5.7 100980 79
2003-04-11 09:38:56 51°47.44 3°39.95 7.1 351 5.7 100980 79
2003-04-11 09:39:00 51°47.44 3°39.95 7 352 5.7 100970 79
2003-04-11 09:39:06 51°47.43 3°39.94 6.7 354 5.7 100970 79
2003-04-11 09:39:10 51°47.43 3°39.94 6.8 352 5.7 100980 80
2003-04-11 09:39:16 51°47.42 3°39.94 7.2 355 5.7 100980 80
2003-04-11 09:39:20 51°47.42 3°39.94 7.2 348 5.7 100980 80
2003-04-11 09:39:26 51°47.41 3°39.94 7.3 357 5.7 100980 80
2003-04-11 09:39:30 51°47.41 3°39.93 7.4 346 5.6 100990 80
2003-04-11 09:39:36 51°47.4 3°39.93 6.9 350 5.6 100990 80
2003-04-11 09:39:40 51°47.4 3°39.93 6.5 345 5.6 100980 80
2003-04-11 09:39:46 51°47.39 3°39.93 7.4 352 5.6 100980 80
2003-04-11 09:39:50 51°47.39 3°39.93 7.5 343 5.6 100990 80
2003-04-11 09:39:56 51°47.38 3°39.93 7.8 353 5.6 100990 80
2003-04-11 09:40:00 51°47.38 3°39.93 7 351 5.6 100980 80
2003-04-11 09:40:06 51°47.37 3°39.93 7.7 1 5.6 100980 80
2003-04-11 09:40:10 51°47.37 3°39.92 6.8 355 5.6 100980 80
2003-04-11 09:40:16 51°47.36 3°39.92 7.1 357 5.6 100980 80
2003-04-11 09:40:20 51°47.36 3°39.92 7.3 2 5.5 100970 81
2003-04-11 09:40:26 51°47.36 3°39.92 7.1 1 5.5 100970 81
2003-04-11 09:40:30 51°47.35 3°39.91 6.9 2 5.5 100970 81
2003-04-11 09:40:36 51°47.35 3°39.91 6.9 2 5.5 100970 81
2003-04-11 09:40:40 51°47.35 3°39.91 7 5 5.5 100980 81
2003-04-11 09:40:46 51°47.34 3°39.9 6.6 6 5.5 100980 81
2003-04-11 09:40:50 51°47.34 3°39.9 6.3 8 5.5 100980 81
2003-04-11 09:40:56 51°47.34 3°39.89 6.5 9 5.5 100980 81
2003-04-11 09:41:00 51°47.34 3°39.89 6.2 23 5.5 100980 81
2003-04-11 09:41:06 51°47.33 3°39.88 6.1 17 5.5 100980 81
2003-04-11 09:41:10 51°47.33 3°39.87 5.8 16 5.5 100980 81
2003-04-11 09:41:16 51°47.33 3°39.87 7 18 5.5 100980 81
2003-04-11 09:41:20 51°47.33 3°39.86 6.4 26 5.5 100980 81
2003-04-11 09:41:26 51°47.33 3°39.86 6.6 17 5.5 100980 81
2003-04-11 09:41:30 51°47.32 3°39.85 6.6 20 5.4 101000 82
2003-04-11 09:41:36 51°47.32 3°39.85 7.1 22 5.4 101000 82
2003-04-11 09:41:40 51°47.32 3°39.84 6.4 17 5.5 100970 82
2003-04-11 09:41:46 51°47.32 3°39.83 6.5 19 5.5 100970 82
2003-04-11 09:41:50 51°47.32 3°39.83 6.5 15 5.4 100980 82
2003-04-11 09:41:56 51°47.31 3°39.82 6.4 16 5.4 100980 82
2003-04-11 09:42:00 51°47.31 3°39.82 6.3 14 5.4 100980 82
2003-04-11 09:42:06 51°47.31 3°39.81 6.6 16 5.4 100980 82
2003-04-11 09:42:10 51°47.31 3°39.81 7.1 18 5.4 100970 82
2003-04-11 09:42:16 51°47.31 3°39.8 6.6 12 5.4 100970 82
2003-04-11 09:42:20 51°47.3 3°39.8 7.2 15 5.4 100980 82
2003-04-11 09:42:26 51°47.3 3°39.79 6.5 8 5.4 100980 82
2003-04-11 09:42:30 51°47.3 3°39.79 7.2 6 5.4 100980 82
2003-04-11 09:42:36 51°47.29 3°39.79 6.8 360 5.4 100980 82
2003-04-11 09:42:40 51°47.29 3°39.78 6.6 4 5.4 100980 82
2003-04-11 09:42:46 51°47.29 3°39.78 7.2 7 5.4 100980 82
2003-04-11 09:42:50 51°47.29 3°39.77 6.3 5 5.4 100980 82
2003-04-11 09:42:56 51°47.28 3°39.77 6.9 14 5.4 100980 82
2003-04-11 09:43:00 51°47.28 3°39.77 6 13 5.4 100990 82
2003-04-11 09:43:06 51°47.28 3°39.76 5.9 14 5.4 100990 82
2003-04-11 09:43:10 51°47.28 3°39.76 6.4 14 5.4 100990 82
2003-04-11 09:43:16 51°47.27 3°39.75 6.7 17 5.4 100990 82
2003-04-11 09:43:20 51°47.27 3°39.75 6.4 10 5.4 100980 82
2003-04-11 09:43:26 51°47.27 3°39.75 6.6 9 5.4 100980 82
2003-04-11 09:43:30 51°47.27 3°39.74 3.3 7 5.4 100980 82
2003-04-11 09:43:36 51°47.26 3°39.74 6.6 10 5.4 100980 82
2003-04-11 09:43:40 51°47.26 3°39.74 6.9 9 5.3 100980 82
2003-04-11 09:43:46 51°47.26 3°39.73 6.9 12 5.3 100980 82
2003-04-11 09:43:50 51°47.26 3°39.73 6.6 7 5.4 100980 83
2003-04-11 09:43:56 51°47.25 3°39.73 6.4 1 5.4 100980 83
2003-04-11 09:44:00 51°47.25 3°39.72 7.6 8 5.4 100980 83
2003-04-11 09:44:06 51°47.25 3°39.72 6.4 7 5.4 100980 83
2003-04-11 09:44:10 51°47.25 3°39.72 6.3 6 5.4 100980 83
2003-04-11 09:44:16 51°47.25 3°39.71 6.7 6 5.4 100980 83
2003-04-11 09:44:20 51°47.24 3°39.71 6.4   5.4 100980 83
2003-04-11 09:44:26 51°47.24 3°39.71 7.1 3 5.4 100980 83
2003-04-11 09:44:30 51°47.24 3°39.71 6.6 2 5.4 100990 83
2003-04-11 09:44:36 51°47.24 3°39.7 6.5 1 5.4 100990 83
2003-04-11 09:44:40 51°47.23 3°39.7 6.9 3 5.4 100980 83
2003-04-11 09:44:46 51°47.23 3°39.7 6.8   5.4 100980 83
2003-04-11 09:44:50 51°47.23 3°39.7 6.9   5.4 100980 83
2003-04-11 09:44:56 51°47.23 3°39.69 7.1 357 5.4 100980 83
2003-04-11 09:45:00 51°47.22 3°39.69 7.5 356 5.4 100980 83
2003-04-11 09:45:06 51°47.22 3°39.69 7 356 5.4 100980 83
2003-04-11 09:45:10 51°47.22 3°39.69 6.4 356 5.3 100980 83
2003-04-11 09:45:16 51°47.22 3°39.69 7.5 353 5.3 100980 83
2003-04-11 09:45:20 51°47.22 3°39.68 7.3 352 5.3 100980 83
2003-04-11 09:45:26 51°47.21 3°39.68 7.5 353 5.3 100980 83
2003-04-11 09:45:30 51°47.21 3°39.68 7.2 355 5.3 100980 83
2003-04-11 09:45:36 51°47.21 3°39.68 7.4 355 5.3 100980 83
2003-04-11 09:45:40 51°47.21 3°39.68 7 351 5.3 100990 83
2003-04-11 09:45:46 51°47.2 3°39.68 7.2 356 5.3 100990 83
2003-04-11 09:45:50 51°47.2 3°39.67 7.2 352 5.4 100980 83
2003-04-11 09:45:56 51°47.2 3°39.67 7.2 356 5.4 100980 83
2003-04-11 09:46:00 51°47.2 3°39.67 6.9 352 5.3 100980 83
2003-04-11 09:46:06 51°47.19 3°39.67 7.2 357 5.3 100980 83
2003-04-11 09:46:10 51°47.19 3°39.67 7.6 352 5.3 100980 83
2003-04-11 09:46:16 51°47.19 3°39.67 7.3 352 5.3 100980 83
2003-04-11 09:46:20 51°47.19 3°39.66 6.8 355 5.3 100980 83
2003-04-11 09:46:26 51°47.18 3°39.66 7 353 5.3 100980 83
2003-04-11 09:46:30 51°47.18 3°39.66 7.3 355 5.3 100990 83
2003-04-11 09:46:36 51°47.18 3°39.66 7.5 352 5.3 100990 83
2003-04-11 09:46:40 51°47.18 3°39.66 7.6 358 5.3 100980 83
2003-04-11 09:46:46 51°47.17 3°39.65 7.3 357 5.3 100980 83
2003-04-11 09:46:50 51°47.17 3°39.65 7 360 5.3 100980 83